Weather History for KRUG - December, 2012

Change the Weather History Date:

Friday, December 7, 2012

  Actual Average Record
Temperature  
Mean Temperature 6 °F -  
Max Temperature 10 °F 22 °F 42 °F (1965)
Min Temperature 1 °F 4 °F -22 °F (2013)
Degree Days  
Heating Degree Days 60    
Moisture  
Dew Point 3 °F    
Average Humidity 86    
Maximum Humidity 92    
Minimum Humidity 79    
Precipitation  
Precipitation 0.00 in - - ()
Sea Level Pressure  
Sea Level Pressure 30.02 in    
Wind  
Wind Speed 6 mph (ENE)    
Max Wind Speed 17 mph    
Max Gust Speed 21 mph    
Visibility 10 miles    
Events      
Averages and records for this station are not official NWS values.
T = Trace of Precipitation, MM = Missing Value Source: NWS Daily Summary

Daily Weather History Graph

Daily Weather History Graph

Search for Another Location

Airport or City:

Trip Planner

Search our weather history database for the weather conditions in past years. The results will help you decide how hot, cold, wet, or windy it might be!

Date:

Astronomy

Dec. 07, 2012 Rise Set
Actual Time 8:18 AM CST 4:45 PM CST
Civil Twilight 7:41 AM CST 5:21 PM CST
Nautical Twilight 7:01 AM CST 6:01 PM CST
Astronomical Twilight 6:24 AM CST 6:39 PM CST
Moon 1:12 AM CST (12/7) 1:07 PM CST (12/7)
Length of Visible Light 9h 40m
Length of Day
8h 27m
Last Quarter, 38% of the Moon is Illuminated
Dec 7
Last Quarter
Dec 13
New
Dec 19
First Quarter
Dec 28
Full
Jan 4
Last Quarter

Hourly Weather History & Observations

Time (CST) Temp. Windchill Dew Point Humidity Pressure Visibility Wind Dir Wind Speed Gust Speed Precip Events Conditions
12:15 AM 10.4 °F -0.4 °F 8.6 °F 92% 29.97 in 10.0 mi North 6.9 mph - N/A   Clear
12:35 AM 10.4 °F -1.5 °F 8.6 °F 92% 29.97 in 10.0 mi North 8.1 mph - N/A   Clear
12:55 AM 8.6 °F - 6.8 °F 92% 29.97 in 10.0 mi Calm Calm - N/A   Clear
1:15 AM 8.6 °F -2.6 °F 6.8 °F 92% 29.97 in 10.0 mi North 6.9 mph - N/A   Clear
1:35 AM 6.8 °F -0.1 °F 5.0 °F 92% 29.97 in 10.0 mi NNE 3.5 mph - N/A   Clear
1:55 AM 6.8 °F -4.8 °F 5.0 °F 92% 29.98 in 10.0 mi North 6.9 mph - N/A   Clear
2:15 AM 6.8 °F -0.1 °F 3.2 °F 85% 29.98 in 10.0 mi NNE 3.5 mph - N/A   Clear
2:35 AM 6.8 °F -0.1 °F 3.2 °F 85% 29.99 in 10.0 mi NNE 3.5 mph - N/A   Clear
2:55 AM 6.8 °F -2.0 °F 3.2 °F 85% 29.99 in 10.0 mi North 4.6 mph - N/A   Clear
3:15 AM 6.8 °F -3.5 °F 1.4 °F 79% 29.99 in 10.0 mi North 5.8 mph - N/A   Clear
3:35 AM 5.0 °F -2.1 °F 1.4 °F 85% 29.99 in 10.0 mi NNE 3.5 mph - N/A   Clear
3:55 AM 5.0 °F -4.1 °F 1.4 °F 85% 30.00 in 10.0 mi North 4.6 mph - N/A   Clear
4:15 AM 3.2 °F -4.2 °F -0.4 °F 85% 30.00 in 10.0 mi NE 3.5 mph - N/A   Clear
4:35 AM 3.2 °F -4.2 °F -0.4 °F 85% 30.00 in 10.0 mi East 3.5 mph - N/A   Clear
4:55 AM 5.0 °F - 1.4 °F 85% 30.00 in 10.0 mi Calm Calm - N/A   Partly Cloudy
5:15 AM 3.2 °F -6.2 °F -0.4 °F 85% 30.00 in 10.0 mi SE 4.6 mph - N/A   Mostly Cloudy
5:35 AM 5.0 °F -4.1 °F 1.4 °F 85% 30.01 in 10.0 mi SE 4.6 mph - N/A   Partly Cloudy
5:55 AM 3.2 °F - -0.4 °F 85% 30.01 in 10.0 mi Calm Calm - N/A   Clear
6:15 AM 1.4 °F - -0.4 °F 92% 30.01 in 10.0 mi Calm Calm - N/A   Clear
6:35 AM 1.4 °F -6.2 °F -0.4 °F 92% 30.01 in 10.0 mi NE 3.5 mph - N/A   Clear
6:55 AM 1.4 °F -6.2 °F -0.4 °F 92% 30.02 in 10.0 mi NE 3.5 mph - N/A   Clear
7:15 AM 1.4 °F -6.2 °F -0.4 °F 92% 30.02 in 10.0 mi NNE 3.5 mph - N/A   Clear
7:35 AM 1.4 °F - -0.4 °F 92% 30.03 in 10.0 mi Calm Calm - N/A   Clear
7:55 AM 1.4 °F - -0.4 °F 92% 30.04 in 10.0 mi Calm Calm - N/A   Clear
8:15 AM 1.4 °F -6.2 °F -0.4 °F 92% 30.04 in 10.0 mi SSE 3.5 mph - N/A   Clear
8:35 AM 3.2 °F - -0.4 °F 85% 30.05 in 10.0 mi Calm Calm - N/A   Scattered Clouds
8:55 AM 3.2 °F - -0.4 °F 85% 30.05 in 10.0 mi Calm Calm - N/A   Mostly Cloudy
9:15 AM 5.0 °F - 1.4 °F 85% 30.05 in 10.0 mi Calm Calm - N/A   Overcast
9:35 AM 5.0 °F - 1.4 °F 85% 30.05 in 10.0 mi Calm Calm - N/A   Overcast
9:55 AM 6.8 °F - 3.2 °F 85% 30.06 in 10.0 mi Calm Calm - N/A   Overcast
10:15 AM 8.6 °F - 3.2 °F 79% 30.06 in 10.0 mi Calm Calm - N/A   Overcast
10:35 AM 8.6 °F - 5.0 °F 85% 30.07 in 10.0 mi Calm Calm - N/A   Overcast
10:55 AM 8.6 °F 2.0 °F 5.0 °F 85% 30.06 in 10.0 mi NNE 3.5 mph - N/A   Overcast
11:15 AM 10.4 °F 2.2 °F 5.0 °F 79% 30.06 in 10.0 mi NE 4.6 mph - N/A   Overcast
11:35 AM 10.4 °F -0.4 °F 5.0 °F 79% 30.06 in 10.0 mi NE 6.9 mph - N/A   Overcast
11:55 AM 10.4 °F -0.4 °F 5.0 °F 79% 30.05 in 10.0 mi ENE 6.9 mph - N/A   Overcast
12:15 PM 8.6 °F -4.7 °F 3.2 °F 79% 30.05 in 10.0 mi ENE 9.2 mph - N/A   Overcast
12:35 PM 10.4 °F -1.5 °F 5.0 °F 79% 30.04 in 10.0 mi ENE 8.1 mph - N/A   Overcast
12:55 PM 10.4 °F -2.4 °F 5.0 °F 79% 30.04 in 10.0 mi ENE 9.2 mph - N/A   Overcast
1:15 PM 8.6 °F -2.6 °F 5.0 °F 85% 30.04 in 10.0 mi ENE 6.9 mph - N/A   Overcast
1:35 PM 8.6 °F -3.7 °F 5.0 °F 85% 30.04 in 10.0 mi ENE 8.1 mph - N/A   Overcast
1:55 PM 8.6 °F -2.6 °F 5.0 °F 85% 30.04 in 10.0 mi ENE 6.9 mph - N/A   Overcast
2:15 PM 8.6 °F -4.7 °F 5.0 °F 85% 30.04 in 10.0 mi ENE 9.2 mph - N/A   Overcast
2:35 PM 8.6 °F -3.7 °F 5.0 °F 85% 30.04 in 10.0 mi ENE 8.1 mph - N/A   Overcast
2:55 PM 8.6 °F -4.7 °F 5.0 °F 85% 30.04 in 10.0 mi ENE 9.2 mph - N/A   Overcast
3:15 PM 8.6 °F -4.7 °F 5.0 °F 85% 30.04 in 10.0 mi ENE 9.2 mph - N/A   Overcast
3:35 PM 8.6 °F -5.5 °F 3.2 °F 79% 30.03 in 10.0 mi ENE 10.4 mph - N/A   Scattered Clouds
3:55 PM 8.6 °F -6.3 °F 3.2 °F 79% 30.04 in 10.0 mi ENE 11.5 mph - N/A   Clear
4:15 PM 6.8 °F -7.8 °F 3.2 °F 85% 30.04 in 10.0 mi East 10.4 mph - N/A   Clear
4:35 PM 6.8 °F -5.9 °F 3.2 °F 85% 30.04 in 10.0 mi East 8.1 mph - N/A   Clear
4:55 PM 5.0 °F -8.1 °F 1.4 °F 85% 30.03 in 10.0 mi ENE 8.1 mph - N/A   Clear
5:15 PM 5.0 °F -8.1 °F 1.4 °F 85% 30.03 in 10.0 mi ENE 8.1 mph - N/A   Clear
5:35 PM 5.0 °F -6.9 °F 1.4 °F 85% 30.04 in 10.0 mi East 6.9 mph - N/A   Clear
5:55 PM 3.2 °F -9.1 °F -0.4 °F 85% 30.03 in 10.0 mi ENE 6.9 mph - N/A   Clear
6:15 PM 3.2 °F -7.8 °F -0.4 °F 85% 30.04 in 10.0 mi East 5.8 mph - N/A   Clear
6:35 PM 1.4 °F -11.3 °F -0.4 °F 92% 30.04 in 10.0 mi ENE 6.9 mph - N/A   Clear
6:55 PM 1.4 °F -11.3 °F -0.4 °F 92% 30.04 in 10.0 mi ENE 6.9 mph - N/A   Clear
7:15 PM 1.4 °F -9.9 °F -0.4 °F 92% 30.04 in 10.0 mi East 5.8 mph - N/A   Clear
7:35 PM 1.4 °F -11.3 °F -0.4 °F 92% 30.03 in 10.0 mi East 6.9 mph - N/A   Clear
7:55 PM 1.4 °F -12.5 °F -0.4 °F 92% 30.02 in 10.0 mi East 8.1 mph - N/A   Clear
8:15 PM 3.2 °F -10.3 °F -0.4 °F 85% 30.02 in 10.0 mi East 8.1 mph - N/A   Clear
8:35 PM 5.0 °F -10.0 °F 1.4 °F 85% 30.02 in 10.0 mi East 10.4 mph - N/A   Partly Cloudy
8:55 PM 5.0 °F -10.8 °F 1.4 °F 85% 30.01 in 10.0 mi East 11.5 mph - N/A   Scattered Clouds
9:15 PM 5.0 °F -10.0 °F 1.4 °F 85% 30.00 in 10.0 mi East 10.4 mph - N/A   Mostly Cloudy
9:35 PM 5.0 °F -9.1 °F 1.4 °F 85% 29.99 in 10.0 mi East 9.2 mph - N/A   Overcast
9:55 PM 6.8 °F -8.6 °F 5.0 °F 92% 29.99 in 10.0 mi East 11.5 mph - N/A   Overcast
10:15 PM 8.6 °F -6.3 °F 5.0 °F 85% 29.98 in 10.0 mi East 11.5 mph - N/A   Overcast
10:35 PM 8.6 °F -6.3 °F 6.8 °F 92% 29.97 in 10.0 mi East 11.5 mph - N/A   Overcast
10:55 PM 10.4 °F -4.8 °F 6.8 °F 85% 29.96 in 10.0 mi East 12.7 mph - N/A   Overcast
11:15 PM 10.4 °F -4.8 °F 8.6 °F 92% 29.96 in 10.0 mi East 12.7 mph - N/A   Overcast
11:35 PM 10.4 °F -6.0 °F 8.6 °F 92% 29.95 in 10.0 mi East 15.0 mph - N/A   Overcast
11:55 PM 10.4 °F -7.2 °F 8.6 °F 92% 29.95 in 10.0 mi East 17.3 mph 20.7 mph N/A   Overcast